Weather History for Newberry, MI

Change the Weather History Date:

Wednesday, December 18, 2013

  Actual Average Record
Temperature  
Mean Temperature 18 °F -  
Max Temperature 21 °F 25 °F 45 °F (1931)
Min Temperature 14 °F 12 °F -9 °F (1983)
Degree Days  
Heating Degree Days 48    
Moisture  
Dew Point 14 °F    
Average Humidity 86    
Maximum Humidity 96    
Minimum Humidity 75    
Precipitation  
Precipitation 0.00 in - - ()
Sea Level Pressure  
Sea Level Pressure 29.85 in    
Wind  
Wind Speed 10 mph (SSW)    
Max Wind Speed 15 mph    
Max Gust Speed 17 mph    
Visibility 9 miles    
Events Snow    
Averages and records for this station are not official NWS values.
T = Trace of Precipitation, MM = Missing Value Source: NWS Daily Summary

Daily Weather History Graph

Daily Weather History Graph

Search for Another Location

Airport:

Trip Planner

Search our weather history database for the weather conditions in past years. The results will help you decide how hot, cold, wet, or windy it might be!

Date:

Astronomy

Dec. 18, 2013 Rise Set
Actual Time 8:20 AM EST 4:56 PM EST
Civil Twilight 7:45 AM EST 5:31 PM EST
Nautical Twilight 7:07 AM EST 6:10 PM EST
Astronomical Twilight 6:30 AM EST 6:46 PM EST
Moon 6:33 PM EST (12/18) 8:55 AM EST (12/18)
Length of Visible Light 9h 46m
Length of Day
8h 36m
Full, 98% of the Moon is Illuminated
Dec 18
Full
Dec 25
Last Quarter
Jan 1
New
Jan 7
First Quarter
Jan 15
Full

Hourly Weather History & Observations

Time (EST) Temp. Windchill Dew Point Humidity Pressure Visibility Wind Dir Wind Speed Gust Speed Precip Events Conditions
12:15 AM 18.5 °F 6.8 °F 15.8 °F 89% 29.84 in 5.0 mi West 10.4 mph - N/A Snow Light Snow
12:35 AM 18.5 °F 6.1 °F 15.6 °F 89% 29.84 in 10.0 mi West 11.5 mph - N/A Snow Light Snow
12:55 AM 18.5 °F 5.5 °F 15.1 °F 86% 29.85 in 10.0 mi West 12.7 mph 17.3 mph N/A Snow Light Snow
1:15 AM 18.5 °F 7.5 °F 14.0 °F 83% 29.85 in 10.0 mi WNW 9.2 mph - N/A   Overcast
1:35 AM 18.1 °F 5.0 °F 14.0 °F 84% 29.86 in 10.0 mi West 12.7 mph - N/A Snow Light Snow
1:55 AM 17.8 °F 3.4 °F 13.6 °F 84% 29.87 in 10.0 mi West 15.0 mph - N/A   Overcast
2:15 AM 17.6 °F 3.2 °F 13.1 °F 83% 29.87 in 10.0 mi West 15.0 mph - N/A   Overcast
2:36 AM 17.1 °F 5.0 °F 12.9 °F 84% 29.87 in 10.0 mi West 10.4 mph 17.3 mph N/A Snow Light Snow
2:55 AM 16.7 °F 3.2 °F 13.6 °F 88% 29.87 in 10.0 mi West 12.7 mph - N/A Snow Light Snow
3:15 AM 16.3 °F 4.1 °F 12.9 °F 86% 29.88 in 10.0 mi West 10.4 mph - N/A Snow Light Snow
3:35 AM 15.6 °F 2.5 °F 12.6 °F 88% 29.88 in 10.0 mi West 11.5 mph - N/A Snow Light Snow
3:55 AM 15.3 °F 0.8 °F 12.2 °F 88% 29.88 in 10.0 mi West 13.8 mph - N/A   Overcast
4:15 AM 14.9 °F 4.0 °F 12.2 °F 89% 29.88 in 10.0 mi WSW 8.1 mph - N/A Snow Light Snow
4:35 AM 14.5 °F 2.7 °F 11.8 °F 89% 29.89 in 10.0 mi West 9.2 mph - N/A Snow Light Snow
4:55 AM 14.5 °F 3.6 °F 11.8 °F 89% 29.90 in 7.0 mi WSW 8.1 mph - N/A Snow Light Snow
5:15 AM 14.0 °F 1.2 °F 11.3 °F 89% 29.90 in 7.0 mi WSW 10.4 mph - N/A Snow Light Snow
5:35 AM 14.0 °F 2.0 °F 11.3 °F 89% 29.90 in 10.0 mi WSW 9.2 mph - N/A Snow Light Snow
5:55 AM 14.0 °F 2.0 °F 11.3 °F 89% 29.91 in 10.0 mi WSW 9.2 mph - N/A Snow Light Snow
6:15 AM 14.0 °F 2.0 °F 11.1 °F 88% 29.91 in 10.0 mi WSW 9.2 mph - N/A Snow Light Snow
6:35 AM 14.0 °F 0.5 °F 11.1 °F 88% 29.91 in 10.0 mi WSW 11.5 mph - N/A Snow Light Snow
6:55 AM 14.0 °F 1.2 °F 11.1 °F 88% 29.92 in 7.0 mi WSW 10.4 mph - N/A Snow Light Snow
7:14 AM 14.0 °F 1.2 °F 11.1 °F 88% 29.92 in 7.0 mi WSW 10.4 mph - N/A Snow Light Snow
7:35 AM 14.0 °F 0.5 °F 10.9 °F 88% 29.93 in 7.0 mi WSW 11.5 mph - N/A Snow Light Snow
7:55 AM 14.0 °F 1.2 °F 10.4 °F 86% 29.92 in 7.0 mi WSW 10.4 mph - N/A Snow Light Snow
8:15 AM 14.0 °F -0.2 °F 10.4 °F 86% 29.93 in 7.0 mi WSW 12.7 mph - N/A Snow Light Snow
8:35 AM 14.0 °F 1.2 °F 10.4 °F 86% 29.94 in 5.0 mi WSW 10.4 mph - N/A Snow Light Snow
8:56 AM 14.0 °F 2.0 °F 10.2 °F 85% 29.93 in 10.0 mi WSW 9.2 mph - N/A Snow Light Snow
9:15 AM 14.0 °F 2.0 °F 10.2 °F 85% 29.94 in 10.0 mi WSW 9.2 mph - N/A Snow Light Snow
9:35 AM 14.0 °F 1.2 °F 9.9 °F 84% 29.94 in 5.0 mi SW 10.4 mph 17.3 mph N/A Snow Light Snow
9:55 AM 14.4 °F 1.6 °F 10.0 °F 83% 29.94 in 5.0 mi SW 10.4 mph - N/A Snow Light Snow
10:15 AM 14.4 °F 1.6 °F 9.9 °F 82% 29.94 in 7.0 mi WSW 10.4 mph - N/A Snow Light Snow
10:35 AM 14.5 °F 1.9 °F 10.0 °F 82% 29.93 in 10.0 mi SW 10.4 mph - N/A Snow Light Snow
10:55 AM 15.4 °F 3.0 °F 10.2 °F 80% 29.93 in 10.0 mi SW 10.4 mph - N/A Snow Light Snow
11:15 AM 15.3 °F 4.4 °F 9.5 °F 78% 29.93 in 10.0 mi SSW 8.1 mph - N/A Snow Light Snow
11:35 AM 14.9 °F 3.1 °F 9.9 °F 80% 29.92 in 10.0 mi SW 9.2 mph - N/A Snow Light Snow
11:55 AM 16.0 °F 4.4 °F 10.2 °F 78% 29.92 in 10.0 mi SW 9.2 mph - N/A   Mostly Cloudy
12:15 PM 16.9 °F 6.4 °F 10.9 °F 77% 29.91 in 10.0 mi SW 8.1 mph - N/A   Mostly Cloudy
12:35 PM 17.2 °F 7.8 °F 11.1 °F 77% 29.91 in 10.0 mi SW 6.9 mph - N/A   Overcast
12:55 PM 17.6 °F 10.7 °F 11.3 °F 76% 29.92 in 10.0 mi SW 4.6 mph - N/A   Mostly Cloudy
1:15 PM 17.8 °F 8.5 °F 11.1 °F 75% 29.90 in 10.0 mi South 6.9 mph - N/A   Mostly Cloudy
1:35 PM 18.3 °F 7.3 °F 11.8 °F 76% 29.90 in 10.0 mi SW 9.2 mph - N/A   Overcast
1:55 PM 18.1 °F 10.0 °F 12.2 °F 78% 29.88 in 10.0 mi SSW 5.8 mph - N/A   Overcast
2:16 PM 17.6 °F 5.7 °F 12.4 °F 80% 29.87 in 10.0 mi South 10.4 mph - N/A Snow Light Snow
2:35 PM 17.6 °F 7.3 °F 12.0 °F 79% 29.87 in 10.0 mi SSW 8.1 mph - N/A   Overcast
2:55 PM 17.6 °F 8.2 °F 12.2 °F 79% 29.87 in 10.0 mi SSW 6.9 mph - N/A   Overcast
3:16 PM 17.4 °F 8.0 °F 12.2 °F 80% 29.86 in 10.0 mi SSW 6.9 mph - N/A   Overcast
3:35 PM 17.6 °F 8.2 °F 12.9 °F 82% 29.86 in 10.0 mi SSW 6.9 mph - N/A   Overcast
3:55 PM 17.4 °F 12.1 °F 12.9 °F 83% 29.85 in 4.0 mi SSW 3.5 mph - N/A Snow Light Snow
4:15 PM 17.1 °F - 14.0 °F 88% 29.84 in 0.8 mi Calm Calm - N/A Snow Snow
4:35 PM 16.7 °F 11.2 °F 14.9 °F 93% 29.82 in 0.8 mi ESE 3.5 mph - N/A Snow Light Snow
4:55 PM 17.1 °F 10.0 °F 14.9 °F 91% 29.81 in 0.5 mi ESE 4.6 mph - N/A Snow Snow
5:15 PM 16.9 °F 8.5 °F 14.9 °F 92% 29.80 in 7.0 mi East 5.8 mph - N/A Snow Light Snow
5:35 PM 17.1 °F 8.7 °F 15.4 °F 93% 29.79 in 10.0 mi East 5.8 mph - N/A   Overcast
5:55 PM 17.4 °F 9.1 °F 15.6 °F 93% 29.79 in 10.0 mi East 5.8 mph - N/A   Overcast
6:15 PM 17.6 °F 7.3 °F 15.8 °F 93% 29.77 in 10.0 mi East 8.1 mph - N/A   Overcast
6:35 PM 17.6 °F 9.3 °F 15.8 °F 93% 29.77 in 10.0 mi East 5.8 mph - N/A   Overcast
6:55 PM 18.0 °F 9.8 °F 16.2 °F 93% 29.78 in 10.0 mi ESE 5.8 mph - N/A   Overcast
7:15 PM 18.1 °F 10.0 °F 16.5 °F 93% 29.78 in 10.0 mi SE 5.8 mph - N/A   Overcast
7:35 PM 18.5 °F 8.4 °F 17.2 °F 95% 29.76 in 10.0 mi SE 8.1 mph - N/A   Overcast
7:56 PM 19.4 °F 7.2 °F 18.3 °F 96% 29.75 in 10.0 mi ESE 11.5 mph - N/A   Overcast
8:15 PM 20.3 °F 9.0 °F 18.9 °F 94% 29.75 in 10.0 mi SE 10.4 mph - N/A   Overcast
8:35 PM 20.7 °F 8.8 °F 18.9 °F 93% 29.74 in 10.0 mi SE 11.5 mph 16.1 mph N/A   Overcast
8:55 PM 21.0 °F 8.1 °F 18.9 °F 91% 29.72 in 10.0 mi SE 13.8 mph 17.3 mph N/A   Overcast
9:15 PM 21.2 °F 10.1 °F 18.5 °F 89% 29.72 in 10.0 mi SE 10.4 mph - N/A   Overcast
9:36 PM 21.0 °F 8.6 °F 18.5 °F 90% 29.71 in 10.0 mi SE 12.7 mph - N/A   Overcast
9:55 PM 21.0 °F 9.3 °F 18.3 °F 89% 29.71 in 10.0 mi SE 11.5 mph - N/A   Overcast
10:15 PM 21.0 °F 9.9 °F 18.3 °F 89% 29.71 in 10.0 mi SE 10.4 mph - N/A   Overcast
10:35 PM 21.2 °F 10.1 °F 18.3 °F 89% 29.70 in 10.0 mi SE 10.4 mph - N/A   Overcast
10:55 PM 21.2 °F 10.1 °F 18.3 °F 89% 29.69 in 10.0 mi SE 10.4 mph - N/A   Overcast
11:15 PM 21.2 °F 10.1 °F 18.3 °F 89% 29.68 in 10.0 mi SE 10.4 mph - N/A   Overcast
11:35 PM 21.6 °F 11.3 °F 18.5 °F 88% 29.68 in 10.0 mi SE 9.2 mph - N/A   Overcast
11:55 PM 21.2 °F 10.1 °F 18.3 °F 89% 29.67 in 10.0 mi SE 10.4 mph - N/A   Overcast